RH
79 79 76 73 71 69 68 67 67 68 68 73 92 100 100 99 100 94 78 88 91 88 86 92 81 89 86
82 85 82 78 71 71 70 64 66 70 70 78 76 85 100 100 100 100 100 87 89 89 88 78 86 84 80
86 88 88 80 75 72 73 76 74 70 75 68 65 74 100 100 100 100 100 78 92 92 88 85 91 90 85
90 84 86 81 81 85 85 72 79 75 73 69 79 79 94 90 98 100 100 100 98 92 91 89 87 87 84
85 85 88 87 89 85 90 88 75 63 65 66 74 84 84 81 85 96 100 97 97 97 94 91 88 87 86
91 86 83 84 87 93 98 92 90 62 69 70 74 78 79 80 81 75 75 96 98 96 94 90 90 90 90
100 96 96 95 99 97 98 100 94 96 95 83 76 82 88 89 90 76 94 99 95 96 96 91 90 88 88
100 100 100 100 100 100 100 100 89 91 92 99 96 100 100 100 89 96 96 100 100 98 100 99 99 99 99
100 100 100 100 97 92 100 100 99 100 99 100 100 100 100 100 100 100 94 94 100 100 100 100 99 98 100
100 100 100 99 96 97 99 100 100 100 100 100 100 100 100 100 100 100 100 100 98 98 96 95 96 98 100
99 98 98 97 96 95 99 100 100 100 100 100 95 97 100 97 97 99 99 95 90 85 73 61 63 59 64
96 96 95 94 93 94 95 99 100 100 100 100 100 100 96 95 91 77 83 82 78 73 69 66 63 61 60
99 100 100 100 100 95 94 95 97 98 98 99 99 98 99 100 100 98 96 93 89 89 85 78 72 67 66
92 91 92 94 92 98 98 98 97 95 96 95 89 87 94 94 96 99 97 93 98 93 90 87 83 80 87
92 92 90 91 92 92 92 90 88 88 89 88 92 97 96 97 96 90 93 92 93 93 92 89 83 84 84
96 96 96 95 94 89 89 87 88 89 89 87 88 86 83 90 94 85 88 93 88 89 90 100 99 84 85
97 96 97 94 95 92 88 88 86 83 84 88 84 88 97 91 80 93 87 85 89 94 90 90 98 88 80
Wind_Speed
24 28 28 30 33 33 32 33 33 34 28 32 30 30 37 40 40 39 41 41 37 36 35 32 28 37 38
27 26 25 29 30 31 30 31 31 33 30 31 33 34 32 38 42 43 42 39 38 40 34 31 36 37 35
24 24 26 28 28 30 26 28 29 28 25 24 30 31 26 28 37 42 43 37 36 36 39 39 40 41 38
20 22 21 26 23 23 21 26 24 21 23 21 17 23 25 19 27 38 39 38 34 36 36 38 36 36 37
18 18 17 17 15 20 19 22 25 21 20 20 18 19 21 21 22 24 26 26 26 27 28 29 30 32 33
16 14 19 19 19 19 17 12 3 14 13 17 19 21 21 16 18 23 19 21 22 23 25 26 29 29 31
18 18 15 14 18 17 12 9 8 14 13 10 7 3 4 8 13 12 8 9 13 17 19 21 22 22 23
19 18 16 15 12 16 18 15 16 11 10 2 8 5 1 2 4 3 5 5 7 9 11 13 14 15 17
13 11 10 11 12 13 10 11 3 2 3 2 2 2 2 1 0 4 8 10 7 10 11 10 10 13 16
12 12 12 11 11 10 8 4 5 3 4 3 2 1 0 2 6 6 4 3 3 2 5 7 7 8 10
8 7 8 10 10 9 8 7 4 2 6 6 3 2 1 1 2 4 4 4 4 4 3 3 4 5 7
7 7 7 9 11 10 9 6 5 5 6 4 3 5 3 1 1 1 2 2 3 5 6 7 6 5 6
8 9 9 9 9 9 8 9 7 7 8 6 4 4 3 6 5 3 4 2 6 7 6 7 8 8 9
9 8 8 8 7 10 8 11 7 7 8 9 8 7 4 3 5 8 9 6 4 6 11 10 9 8 8
4 5 6 8 7 7 7 7 6 6 9 8 9 11 8 9 5 3 5 6 8 9 10 13 14 10 10
5 4 4 6 8 6 6 6 5 6 7 8 11 11 10 4 4 8 6 7 5 9 13 13 14 12 10
3 3 4 5 6 7 6 5 8 7 7 7 9 7 2 2 5 4 6 7 11 14 10 12 15 21 18
Wind_Direction
282 285 286 288 294 296 296 293 292 288 287 283 285 296 273 255 245 233 230 236 230 240 238 234 229 241 239
288 286 282 288 294 291 293 294 290 287 287 266 267 285 290 258 243 238 238 233 238 238 228 240 238 237 238
285 288 285 291 291 293 296 295 291 288 278 282 269 286 293 267 248 239 237 235 227 237 244 244 243 243 241
284 290 286 291 289 287 291 303 294 291 284 281 291 274 287 285 257 244 240 240 240 238 241 243 245 246 248
287 294 296 298 286 295 281 289 295 297 288 285 289 271 277 281 279 257 241 235 235 234 236 240 245 249 251
284 287 295 294 303 317 303 289 301 314 315 286 278 261 256 263 277 267 256 241 235 237 239 241 246 250 253
278 281 291 300 307 300 306 321 291 323 331 289 338 18 244 239 247 251 236 225 232 237 240 245 248 251 255
278 282 284 292 296 289 292 291 290 287 324 291 349 44 42 83 271 258 249 235 235 235 239 243 246 251 258
284 282 286 305 316 312 298 312 287 260 328 277 268 263 268 151 237 265 263 269 249 239 242 246 252 258 262
297 299 308 316 327 338 325 316 303 302 343 305 263 225 72 222 238 240 227 148 201 247 260 265 269 271 262
312 318 329 336 341 347 346 340 324 281 335 330 320 277 234 190 232 252 248 243 243 254 262 251 215 245 258
343 354 0 357 355 346 349 345 343 325 321 332 325 335 319 324 281 282 230 253 249 261 258 257 264 263 258
5 355 354 355 356 359 359 353 329 344 352 351 352 336 338 328 331 323 331 274 277 275 275 290 289 273 273
339 337 335 346 360 356 358 353 358 9 15 3 360 356 338 316 284 299 311 317 341 314 315 306 300 293 272
331 344 336 342 356 359 360 6 354 355 351 359 348 330 311 287 285 279 296 305 315 321 324 318 314 303 288
325 334 341 336 335 346 356 350 339 346 347 347 352 360 349 354 271 270 291 286 315 321 319 312 307 316 296
294 311 326 329 328 334 338 345 333 332 338 340 341 348 7 327 334 251 270 293 302 317 325 318 301 294 302